EW2785 Weather Reports


Display with metric or nautical units.
time (UTC)temp
F
wind
direction
speed
MPH
gust
MPH
rain 1hr
in
rain 24hr
in
rain mn
in
humidity
%
barometer
mb
20260502151538 45 330 0.0 8.0 0.00 0.09 0.09 89 1011.5
20260502123020 43 78 0.0 1.0 0.00 0.09 0.09 92 1011.5
20260502121517 43 78 0.0 0.0 0.01 0.09 0.09 92 1011.5
20260502114516 43 78 0.0 1.0 0.01 0.09 0.09 92 1011.3
20260502113016 43 79 0.0 1.0 0.02 0.09 0.09 92 1011.2
20260502111515 43 79 0.0 0.0 0.01 0.08 0.08 92 1011.3
20260502110014 42 79 0.0 0.0 0.01 0.08 0.08 92 1011.2
20260502104520 42 78 0.0 0.0 0.02 0.08 0.08 91 1011.2
20260502103015 42 78 0.0 0.0 0.03 0.07 0.07 91 1011.0
20260502101530 42 78 0.0 0.0 0.03 0.07 0.07 91 1010.9
20260502091510 42 78 0.0 0.0 0.00 0.04 0.04 91 1011.1
20260502071501 43 78 1.0 3.0 0.01 0.01 0.01 89 1011.0
20260502070130 43 81 2.0 6.0 0.00 0.00 0.00 88 1011.4
20260502064600 43 105 2.0 6.0 0.00 0.00 0.00 88 1011.4
20260502063100 43 95 2.0 5.0 0.00 0.00 0.00 87 1011.4
20260502061606 43 286 0.0 0.0 0.00 0.00 0.00 86 1011.4
20260502060057 43 286 0.0 0.0 0.00 0.00 0.00 86 1011.4
20260502054558 43 286 0.0 0.0 0.00 0.00 0.00 85 1011.5
20260502053055 43 286 0.0 1.0 0.00 0.00 0.00 85 1011.5
20260502051620 43 286 0.0 0.0 0.00 0.00 0.00 84 1011.4
20260502050056 43 286 0.0 0.0 0.00 0.00 0.00 83 1011.7
20260502044550 43 286 0.0 0.0 0.00 0.00 0.00 82 1011.6
20260502043052 43 286 0.0 0.0 0.00 0.00 0.00 82 1011.5
20260502041548 43 286 0.0 0.0 0.00 0.00 0.00 81 1011.5
20260502040055 43 286 0.0 0.0 0.00 0.00 0.00 81 1011.4
20260502034546 43 286 0.0 1.0 0.00 0.00 0.00 81 1011.4
20260502033045 43 320 0.0 1.0 0.00 0.00 0.00 81 1011.4
20260502031545 43 320 0.0 0.0 0.00 0.00 0.00 81 1011.5
20260502030045 43 281 0.0 1.0 0.00 0.00 0.00 79 1011.3
20260502024544 43 281 0.0 0.0 0.00 0.00 0.00 77 1011.2
20260502023057 43 281 0.0 0.0 0.00 0.00 0.00 76 1011.0
20260502021543 43 281 0.0 1.0 0.00 0.00 0.00 76 1011.1
20260502020059 44 281 0.0 0.0 0.00 0.00 0.00 73 1011.1
20260502014547 45 281 0.0 0.0 0.00 0.00 0.00 71 1011.2
20260502013057 46 281 0.0 0.0 0.00 0.00 0.00 70 1011.1
20260502011541 46 281 0.0 1.0 0.00 0.00 0.00 68 1011.1
20260502010041 47 281 0.0 0.0 0.00 0.01 0.00 66 1010.9
20260502004544 48 281 0.0 0.0 0.00 0.01 0.00 64 1010.8
20260502003041 49 281 0.0 0.0 0.00 0.01 0.00 62 1010.6
20260502001557 50 281 0.0 0.0 0.00 0.01 0.00 58 1010.4
20260502000039 51 281 0.0 0.0 0.00 0.01 0.00 55 1010.2
20260501234539 52 281 0.0 0.0 0.00 0.01 0.00 51 1010.0
20260501233045 53 281 0.0 0.0 0.00 0.01 0.00 49 1009.8
20260501231538 53 279 0.0 0.0 0.00 0.01 0.00 47 1009.7
20260501230039 54 279 0.0 1.0 0.00 0.04 0.00 45 1009.4
20260501224538 54 205 0.0 5.0 0.00 0.04 0.00 45 1009.4
20260501223037 54 275 3.0 7.0 0.00 0.04 0.00 43 1009.4
20260501221535 55 325 0.0 5.0 0.00 0.04 0.00 43 1009.3
20260501220107 55 252 0.0 8.0 0.00 0.12 0.00 42 1009.3
20260501214538 56 245 4.0 8.0 0.00 0.12 0.00 39 1009.4
20260501213035 57 192 0.0 5.0 0.00 0.12 0.00 40 1009.2
20260501211534 57 167 1.0 4.0 0.00 0.12 0.00 38 1009.1
20260501210044 57 307 2.0 8.0 0.00 0.12 0.00 41 1009.1
20260501204540 56 9 2.0 6.0 0.00 0.12 0.00 44 1009.2
20260501203036 56 259 0.0 7.0 0.00 0.12 0.00 43 1009.2
20260501201539 57 272 1.0 4.0 0.00 0.12 0.00 41 1009.2
20260501200031 55 144 0.0 5.0 0.00 0.12 0.00 47 1009.3
20260501194535 56 290 0.0 5.0 0.00 0.12 0.00 42 1009.4
20260501193038 57 244 1.0 7.0 0.00 0.12 0.00 45 1009.6
20260501191528 56 321 1.0 5.0 0.00 0.12 0.00 48 1009.5
20260501190027 54 332 0.0 7.0 0.00 0.13 0.00 48 1009.7
20260501184528 54 334 2.0 5.0 0.00 0.13 0.00 47 1010.0
20260501183023 53 10 0.0 11.0 0.00 0.13 0.00 50 1010.2
20260501181539 54 231 1.0 9.0 0.00 0.13 0.00 49 1010.3
20260501180022 54 284 0.0 6.0 0.00 0.16 0.00 49 1010.4
20260501174518 54 75 2.0 7.0 0.00 0.16 0.00 48 1010.4
20260501173016 53 251 0.0 10.0 0.00 0.16 0.00 52 1010.5
20260501171517 52 282 2.0 10.0 0.00 0.16 0.00 54 1010.5
20260501170018 51 328 3.0 7.0 0.00 0.19 0.00 56 1010.7
20260501164524 51 9 2.0 7.0 0.00 0.19 0.00 56 1010.7
20260501163025 51 250 0.0 6.0 0.00 0.19 0.00 55 1010.9
20260501161509 51 144 1.0 7.0 0.00 0.19 0.00 59 1010.9
20260501160007 50 252 2.0 6.0 0.00 0.19 0.00 60 1011.0
20260501154505 50 204 3.0 8.0 0.00 0.19 0.00 62 1011.2
20260501153004 49 323 2.0 12.0 0.00 0.19 0.00 60 1011.3